Weather History for St. Inigoes, MD

Change the Weather History Date:

Monday, April 1, 2013

  Actual Average (KNHK) Record (KNHK)
Temperature  
Mean Temperature 53 °F -  
Max Temperature 66 °F 63 °F 86 °F (1978)
Min Temperature 42 °F 41 °F 28 °F (2003)
Degree Days  
Heating Degree Days 12    
Growing Degree Days 3 (Base 50)    
Moisture  
Dew Point 39 °F    
Average Humidity 69    
Maximum Humidity 100    
Minimum Humidity 38    
Precipitation  
Precipitation 0.03 in - - ()
Sea Level Pressure  
Sea Level Pressure 29.81 in    
Wind  
Wind Speed 3 mph (WNW)    
Max Wind Speed 18 mph    
Max Gust Speed 25 mph    
Averages and records for this station are not official NWS values.
T = Trace of Precipitation, MM = Missing Value Source: NWS Daily Summary

Daily Weather History Graph

Daily Weather History Graph

Search for Another Location

Airport:

Trip Planner

Search our weather history database for the weather conditions in past years. The results will help you decide how hot, cold, wet, or windy it might be!

Date:

Astronomy

Apr. 01, 2013 Rise Set
Actual Time 6:50 AM EDT 7:29 PM EDT
Civil Twilight 6:23 AM EDT 7:55 PM EDT
Nautical Twilight 5:52 AM EDT 8:27 PM EDT
Astronomical Twilight 5:20 AM EDT 8:59 PM EDT
Moon 12:31 AM EDT (4/1) 10:38 AM EDT (4/1)
Length of Visible Light 13h 31m
Length of Day
12h 38m
Waning Gibbous, 67% of the Moon is Illuminated
Apr 1
Waning Gibbous
Apr 3
Last Quarter
Apr 10
New
Apr 18
First Quarter
Apr 25
Full

Hourly Weather History & Observations

Time (EDT) Temp. Windchill Dew Point Humidity Pressure Visibility Wind Dir Wind Speed Gust Speed Precip Events Conditions
12:53 AM 48.9 °F - 46.9 °F 93% 29.78 in - Calm Calm - N/A   Partly Cloudy
1:53 AM 48.0 °F - 46.0 °F 93% 29.78 in - Calm Calm - N/A   Partly Cloudy
2:53 AM 46.9 °F - 45.0 °F 93% 29.79 in - Calm Calm - N/A   Scattered Clouds
3:53 AM 46.0 °F - 45.0 °F 96% 29.78 in - Calm Calm - N/A   Overcast
4:07 AM 44.6 °F - 44.6 °F 100% 29.78 in - Calm Calm - N/A   Overcast
4:53 AM 43.0 °F - 42.1 °F 97% 29.78 in - Calm Calm - N/A   Overcast
5:53 AM 43.0 °F - 42.1 °F 97% 29.78 in - Calm Calm - N/A   Overcast
6:53 AM 42.1 °F - 41.0 °F 96% 29.79 in - Calm Calm - N/A   Overcast
7:53 AM 44.1 °F - 43.0 °F 96% 29.81 in - Calm Calm - N/A   Overcast
8:53 AM 46.9 °F - 46.0 °F 97% 29.81 in - Calm Calm - N/A   Mostly Cloudy
9:03 AM 46.4 °F 45.2 °F 46.4 °F 100% 29.81 in - WSW 3.5 mph - N/A   Scattered Clouds
9:53 AM 51.1 °F - 45.0 °F 80% 29.80 in - Calm Calm - N/A   Clear
10:53 AM 57.0 °F - 43.0 °F 59% 29.79 in - SW 5.8 mph - N/A   Clear
11:53 AM 61.0 °F - 41.0 °F 48% 29.78 in - SW 5.8 mph - N/A   Clear
12:53 PM 64.0 °F - 39.0 °F 40% 29.75 in - Variable 3.5 mph - N/A   Clear
1:53 PM 64.0 °F - 37.9 °F 38% 29.74 in - West 6.9 mph - N/A   Scattered Clouds
3:53 PM 64.0 °F - 37.9 °F 38% 29.72 in - West 13.8 mph 23.0 mph 0.00 in Rain Light Rain
4:53 PM 64.9 °F - 39.0 °F 39% 29.73 in - WNW 18.4 mph 25.3 mph 0.00 in   Mostly Cloudy
5:53 PM 55.9 °F - 44.1 °F 64% 29.78 in - Variable 5.8 mph - 0.03 in Rain Light Rain
6:53 PM 55.9 °F - 37.0 °F 49% 29.82 in - NNW 8.1 mph - 0.00 in   Mostly Cloudy
7:53 PM 53.1 °F - 30.0 °F 41% 29.86 in - NW 10.4 mph 19.6 mph N/A   Overcast
8:53 PM 51.1 °F - 28.9 °F 43% 29.89 in - NW 10.4 mph 18.4 mph N/A   Clear
9:53 PM 48.0 °F - 26.1 °F 42% 29.93 in - Variable 6.9 mph - N/A   Clear
10:53 PM 46.9 °F - 23.0 °F 39% 29.95 in - NW 8.1 mph - N/A   Clear
11:53 PM 44.1 °F 41.5 °F 24.1 °F 45% 29.97 in - NW 4.6 mph - N/A   Clear